Location: Oulou
(10.7667°N, 12.5167°W)
Time: 23:55:16
(UTC+00:00)

Cosmos 2082 - Pass Details

Date: 20 September 2019
Orbit: 834 x 855 km, 71.0° (Epoch: 14 October)

Event Time Altitude Azimuth Distance (km) Brightness Sun altitude
Rises 19:47:20 0° 187° (S) 3,405 6.9 -15.5°
Reaches altitude 10° 19:49:49 10° 183° (S) 2,472 6.1 -16.1°
Maximum altitude 19:55:23 59° 105° (ESE) 981 3.7 -17.5°
Drops below altitude 10° 20:00:58 10° 26° (NNE) 2,478 5.9 -18.8°
Sets 20:03:27 0° 23° (NNE) 3,414 6.7 -19.4°
